sat.trackr.live / text

‹ back to catalog

STARLINK-3514

NORAD 51731 · 2022-016T

PAYLOAD ACTIVE UNKNOWN

§ Identity

Operator
Country
US
Launch date
2022-02-21
Launch site
AFETR
Launch vehicle
Mass (kg)
RCS (m²)

Purposes: comms

External: N2YO · Heavens-Above · Gunter

§ Orbital elements

Epoch: 2026-09-19T22:54:54.320832Z

Period
93.79 min
Inclination
53.1597°
Eccentricity
0.0001226
Mean motion
15.35391130 rev/d
Perigee alt
458.9 km
Apogee alt
460.6 km
Semi-major
6,837.9 km
B*
1.9786e-6
RAAN
152.2877°
Arg perigee
89.6201°
Mean anomaly
270.4943°
Rev number
25,309

§ Raw data

STARLINK-35141 51731U 22016T   26262.95479538 -.00000311  00000+0  19786-5 0  99972 51731  53.1597 152.2877 0001226  89.6201 270.4943 15.35391130253097

JSON: /api/v1/satellites/51731 · /tle

For live sub-satellite position, see the globe view (requires WebGL).

§ Visibility from observer

Set your observer location to see the next 7 days of passes ≥ 10°. The values pass through the URL so the page stays shareable.

No JS? Fill the form by hand. The geolocation button needs JavaScript.